Location: Champs
(48.8539°N, 2.6040°E)
Time: 22:48:38
(UTC+00:00)

SPOT 1 Rocket Y - Pass Details

Date: 22 August 2022
Orbit: 784 x 832 km, 98.5° (Epoch: 07 October)

Event Time Altitude Azimuth Distance (km) Brightness Sun altitude
Exits shadow 21:44:45 - 221° (SW) 2,795 8.3 -23.4°
Reaches altitude 10° 21:46:18 10° 233° (SW) 2,380 8.0 -23.5°
Maximum altitude 21:49:38 17° 272° (W) 1,959 8.0 -23.8°
Drops below altitude 10° 21:53:00 10° 312° (NW) 2,411 9.1 -24.1°
Sets 21:56:16 0° 332° (NNW) 3,359 10.2 -24.4°
